owner,sensor,date,latitude,longitude,vertical_datum,wind_speed,wind_to_direction,wind_speed_of_gust,qcFlag 
ADCP,ioos:station:wmo:42887:1,2014-09-01T00:00:00Z,28.1910,-88.4960,48.2,5.8,97.0,99.0,'11111222,11111222,11144222' 
ADCP,ioos:station:wmo:42887:1,2014-09-01T00:20:00Z,28.1910,-88.4960,48.2,6.3,98.0,99.0,'11111222,11111222,11144222' 
ADCP,ioos:station:wmo:42887:1,2014-09-01T00:40:00Z,28.1910,-88.4960,48.2,6.2,98.0,99.0,'11111222,11111222,11144222' 
ADCP,ioos:station:wmo:42887:1,2014-09-01T01:00:00Z,28.1910,-88.4960,48.2,8.1,106.0,99.0,'11111222,11111222,11144222' 
ADCP,ioos:station:wmo:42887:1,2014-09-01T01:20:00Z,28.1910,-88.4960,48.2,7.5,117.0,99.0,'11111222,11111222,11144222' 
ADCP,ioos:station:wmo:42887:1,2014-09-01T01:40:00Z,28.1910,-88.4960,48.2,5.5,118.0,99.0,'11111222,11111222,11144222' 
ADCP,ioos:station:wmo:42887:1,2014-09-01T02:00:00Z,28.1910,-88.4960,48.2,5.7,125.0,99.0,'11111222,11111222,11144222' 
ADCP,ioos:station:wmo:42887:1,2014-09-01T02:20:00Z,28.1910,-88.4960,48.2,7.2,105.0,99.0,'11111222,11111222,11144222' 
ADCP,ioos:station:wmo:42887:1,2014-09-01T02:40:00Z,28.1910,-88.4960,48.2,5.2,112.0,99.0,'11111222,11111222,11144222' 
ADCP,ioos:station:wmo:42887:1,2014-09-01T03:00:00Z,28.1910,-88.4960,48.2,8.1,116.0,99.0,'11111222,11111222,11144222' 
ADCP,ioos:station:wmo:42887:1,2014-09-01T03:20:00Z,28.1910,-88.4960,48.2,7.5,98.0,99.0,'11111222,11111222,11144222' 
ADCP,ioos:station:wmo:42887:1,2014-09-01T03:40:00Z,28.1910,-88.4960,48.2,9.5,126.0,99.0,'11111222,11111222,11144222' 
ADCP,ioos:station:wmo:42887:1,2014-09-01T04:00:00Z,28.1910,-88.4960,48.2,8.2,119.0,99.0,'11111222,11111222,11144222' 
ADCP,ioos:station:wmo:42887:1,2014-09-01T04:20:00Z,28.1910,-88.4960,48.2,8.3,110.0,99.0,'11111222,11111222,11144222' 
ADCP,ioos:station:wmo:42887:1,2014-09-01T04:40:00Z,28.1910,-88.4960,48.2,5.4,124.0,99.0,'11111222,11111222,11144222' 
ADCP,ioos:station:wmo:42887:1,2014-09-01T05:00:00Z,28.1910,-88.4960,48.2,5.6,143.0,99.0,'11111222,11111222,11144222' 
ADCP,ioos:station:wmo:42887:1,2014-09-01T05:20:00Z,28.1910,-88.4960,48.2,7.0,121.0,99.0,'11111222,11111222,11144222' 
ADCP,ioos:station:wmo:42887:1,2014-09-01T05:40:00Z,28.1910,-88.4960,48.2,7.2,124.0,99.0,'11111222,11111222,11144222' 
ADCP,ioos:station:wmo:42887:1,2014-09-01T06:00:00Z,28.1910,-88.4960,48.2,7.1,119.0,99.0,'11111222,11111222,11144222' 
ADCP,ioos:station:wmo:42887:1,2014-09-01T06:20:00Z,28.1910,-88.4960,48.2,7.8,117.0,99.0,'11111222,11111222,11144222' 
ADCP,ioos:station:wmo:42887:1,2014-09-01T06:40:00Z,28.1910,-88.4960,48.2,6.9,103.0,99.0,'11111222,11111222,11144222' 
ADCP,ioos:station:wmo:42887:1,2014-09-01T07:00:00Z,28.1910,-88.4960,48.2,5.4,126.0,99.0,'11111222,11111222,11144222' 
ADCP,ioos:station:wmo:42887:1,2014-09-01T07:20:00Z,28.1910,-88.4960,48.2,6.9,98.0,99.0,'11111222,11111222,11144222' 
ADCP,ioos:station:wmo:42887:1,2014-09-01T07:40:00Z,28.1910,-88.4960,48.2,6.4,113.0,99.0,'11111222,11111222,11144222' 
ADCP,ioos:station:wmo:42887:1,2014-09-01T08:00:00Z,28.1910,-88.4960,48.2,7.9,115.0,99.0,'11111222,11111222,11144222' 
ADCP,ioos:station:wmo:42887:1,2014-09-01T08:20:00Z,28.1910,-88.4960,48.2,8.8,123.0,99.0,'11111222,11111222,11144222' 
ADCP,ioos:station:wmo:42887:1,2014-09-01T08:40:00Z,28.1910,-88.4960,48.2,4.8,146.0,99.0,'11111222,11111222,11144222' 
ADCP,ioos:station:wmo:42887:1,2014-09-01T09:00:00Z,28.1910,-88.4960,48.2,6.8,133.0,99.0,'11111222,11111222,11144222' 
ADCP,ioos:station:wmo:42887:1,2014-09-01T09:20:00Z,28.1910,-88.4960,48.2,7.1,132.0,99.0,'11111222,11111222,11144222' 
ADCP,ioos:station:wmo:42887:1,2014-09-01T09:40:00Z,28.1910,-88.4960,48.2,8.9,124.0,99.0,'11111222,11111222,11144222' 
ADCP,ioos:station:wmo:42887:1,2014-09-01T10:00:00Z,28.1910,-88.4960,48.2,7.2,99.0,99.0,'11111222,11111222,11144222' 
ADCP,ioos:station:wmo:42887:1,2014-09-01T10:20:00Z,28.1910,-88.4960,48.2,7.9,123.0,99.0,'11111222,11111222,11144222' 
ADCP,ioos:station:wmo:42887:1,2014-09-01T10:40:00Z,28.1910,-88.4960,48.2,6.3,124.0,99.0,'11111222,11111222,11144222' 
ADCP,ioos:station:wmo:42887:1,2014-09-01T11:00:00Z,28.1910,-88.4960,48.2,9.0,125.0,99.0,'11111222,11111222,11144222' 
ADCP,ioos:station:wmo:42887:1,2014-09-01T11:20:00Z,28.1910,-88.4960,48.2,8.7,130.0,99.0,'11111222,11111222,11144222' 
ADCP,ioos:station:wmo:42887:1,2014-09-01T11:40:00Z,28.1910,-88.4960,48.2,7.0,134.0,99.0,'11111222,11111222,11144222' 
ADCP,ioos:station:wmo:42887:1,2014-09-01T12:00:00Z,28.1910,-88.4960,48.2,7.1,160.0,99.0,'11111222,11111222,11144222' 
ADCP,ioos:station:wmo:42887:1,2014-09-01T12:20:00Z,28.1910,-88.4960,48.2,6.9,135.0,99.0,'11111222,11111222,11144222' 
ADCP,ioos:station:wmo:42887:1,2014-09-01T12:40:00Z,28.1910,-88.4960,48.2,3.9,135.0,99.0,'11111222,11111222,11144222' 
ADCP,ioos:station:wmo:42887:1,2014-09-01T13:00:00Z,28.1910,-88.4960,48.2,5.8,135.0,99.0,'11111222,11111222,11144222' 
ADCP,ioos:station:wmo:42887:1,2014-09-01T13:20:00Z,28.1910,-88.4960,48.2,6.5,125.0,99.0,'11111222,11111222,11144222' 
ADCP,ioos:station:wmo:42887:1,2014-09-01T13:40:00Z,28.1910,-88.4960,48.2,6.2,133.0,99.0,'11111222,11111222,11144222' 
ADCP,ioos:station:wmo:42887:1,2014-09-01T14:00:00Z,28.1910,-88.4960,48.2,6.8,117.0,99.0,'11111222,11111222,11144222' 
ADCP,ioos:station:wmo:42887:1,2014-09-01T14:20:00Z,28.1910,-88.4960,48.2,6.3,147.0,99.0,'11111222,11111222,11144222' 
ADCP,ioos:station:wmo:42887:1,2014-09-01T14:40:00Z,28.1910,-88.4960,48.2,4.6,133.0,99.0,'11111222,11111222,11144222' 
ADCP,ioos:station:wmo:42887:1,2014-09-01T15:00:00Z,28.1910,-88.4960,48.2,6.2,129.0,99.0,'11111222,11111222,11144222' 
ADCP,ioos:station:wmo:42887:1,2014-09-01T15:20:00Z,28.1910,-88.4960,48.2,5.0,135.0,99.0,'11111222,11111222,11144222' 
ADCP,ioos:station:wmo:42887:1,2014-09-01T15:40:00Z,28.1910,-88.4960,48.2,5.1,137.0,99.0,'11111222,11111222,11144222' 
ADCP,ioos:station:wmo:42887:1,2014-09-01T16:00:00Z,28.1910,-88.4960,48.2,3.5,137.0,99.0,'11111222,11111222,11144222' 
ADCP,ioos:station:wmo:42887:1,2014-09-01T16:20:00Z,28.1910,-88.4960,48.2,3.7,137.0,99.0,'11111222,11111222,11144222' 
ADCP,ioos:station:wmo:42887:1,2014-09-01T16:40:00Z,28.1910,-88.4960,48.2,3.0,134.0,99.0,'11111222,11111222,11144222' 
ADCP,ioos:station:wmo:42887:1,2014-09-01T17:00:00Z,28.1910,-88.4960,48.2,3.8,135.0,99.0,'11111222,11111222,11144222' 
ADCP,ioos:station:wmo:42887:1,2014-09-01T17:20:00Z,28.1910,-88.4960,48.2,4.1,129.0,99.0,'11111222,11111222,11144222' 
ADCP,ioos:station:wmo:42887:1,2014-09-01T17:40:00Z,28.1910,-88.4960,48.2,4.5,143.0,99.0,'11111222,11111222,11144222' 
ADCP,ioos:station:wmo:42887:1,2014-09-01T18:00:00Z,28.1910,-88.4960,48.2,5.9,141.0,99.0,'11111222,11111222,11144222' 
ADCP,ioos:station:wmo:42887:1,2014-09-01T18:20:00Z,28.1910,-88.4960,48.2,5.6,147.0,99.0,'11111222,11111222,11144222' 
ADCP,ioos:station:wmo:42887:1,2014-09-01T18:40:00Z,28.1910,-88.4960,48.2,4.0,141.0,99.0,'11111222,11111222,11144222' 
ADCP,ioos:station:wmo:42887:1,2014-09-01T19:00:00Z,28.1910,-88.4960,48.2,6.6,141.0,99.0,'11111222,11111222,11144222' 
ADCP,ioos:station:wmo:42887:1,2014-09-01T19:20:00Z,28.1910,-88.4960,48.2,8.7,185.0,99.0,'11111222,11111222,11144222' 
ADCP,ioos:station:wmo:42887:1,2014-09-01T19:40:00Z,28.1910,-88.4960,48.2,7.4,188.0,99.0,'11111222,11111222,11144222' 
ADCP,ioos:station:wmo:42887:1,2014-09-01T20:00:00Z,28.1910,-88.4960,48.2,5.5,182.0,99.0,'11111222,11111222,11144222' 
ADCP,ioos:station:wmo:42887:1,2014-09-01T20:20:00Z,28.1910,-88.4960,48.2,4.5,179.0,99.0,'11111222,11111222,11144222' 
ADCP,ioos:station:wmo:42887:1,2014-09-01T20:40:00Z,28.1910,-88.4960,48.2,3.3,171.0,99.0,'11111222,11111222,11144222' 
ADCP,ioos:station:wmo:42887:1,2014-09-01T21:00:00Z,28.1910,-88.4960,48.2,2.8,166.0,99.0,'11111222,11111222,11144222' 
ADCP,ioos:station:wmo:42887:1,2014-09-01T21:20:00Z,28.1910,-88.4960,48.2,1.7,160.0,99.0,'11111222,11111222,11144222' 
ADCP,ioos:station:wmo:42887:1,2014-09-01T21:40:00Z,28.1910,-88.4960,48.2,2.3,135.0,99.0,'11111222,11111222,11144222' 
ADCP,ioos:station:wmo:42887:1,2014-09-01T22:00:00Z,28.1910,-88.4960,48.2,3.1,136.0,99.0,'11111222,11111222,11144222' 
ADCP,ioos:station:wmo:42887:1,2014-09-01T22:20:00Z,28.1910,-88.4960,48.2,3.4,134.0,99.0,'11111222,11111222,11144222' 
ADCP,ioos:station:wmo:42887:1,2014-09-01T22:40:00Z,28.1910,-88.4960,48.2,3.3,140.0,99.0,'11111222,11111222,11144222' 
ADCP,ioos:station:wmo:42887:1,2014-09-01T23:00:00Z,28.1910,-88.4960,48.2,4.8,144.0,99.0,'11111222,11111222,11144222' 
ADCP,ioos:station:wmo:42887:1,2014-09-01T23:20:00Z,28.1910,-88.4960,48.2,3.1,142.0,99.0,'11111222,11111222,11144222' 
ADCP,ioos:station:wmo:42887:1,2014-09-01T23:40:00Z,28.1910,-88.4960,48.2,2.5,168.0,99.0,'11111222,11111222,11144222' 
ADCP,ioos:station:wmo:42887:1,2014-09-02T00:00:00Z,28.1910,-88.4960,48.2,1.7,153.0,99.0,'11111222,11111222,11144222' 
ADCP,ioos:station:wmo:42887:1,2014-09-02T00:20:00Z,28.1910,-88.4960,48.2,2.4,145.0,99.0,'11111222,11111222,11144222' 
ADCP,ioos:station:wmo:42887:1,2014-09-02T00:40:00Z,28.1910,-88.4960,48.2,1.9,144.0,99.0,'11111222,11111222,11144222' 
ADCP,ioos:station:wmo:42887:1,2014-09-02T01:00:00Z,28.1910,-88.4960,48.2,1.3,163.0,99.0,'11111222,11111222,11144222' 
ADCP,ioos:station:wmo:42887:1,2014-09-02T01:20:00Z,28.1910,-88.4960,48.2,0.9,168.0,99.0,'11111222,11111222,11144222' 
ADCP,ioos:station:wmo:42887:1,2014-09-02T01:40:00Z,28.1910,-88.4960,48.2,1.8,171.0,99.0,'11111222,11111222,11144222' 
ADCP,ioos:station:wmo:42887:1,2014-09-02T02:00:00Z,28.1910,-88.4960,48.2,1.6,168.0,99.0,'11111222,11111222,11144222' 
ADCP,ioos:station:wmo:42887:1,2014-09-02T02:20:00Z,28.1910,-88.4960,48.2,1.2,173.0,99.0,'11111222,11111222,11144222' 
ADCP,ioos:station:wmo:42887:1,2014-09-02T02:40:00Z,28.1910,-88.4960,48.2,2.4,139.0,99.0,'11111222,11111222,11144222' 
ADCP,ioos:station:wmo:42887:1,2014-09-02T03:00:00Z,28.1910,-88.4960,48.2,2.1,127.0,99.0,'11111222,11111222,11144222' 
ADCP,ioos:station:wmo:42887:1,2014-09-02T03:20:00Z,28.1910,-88.4960,48.2,2.0,121.0,99.0,'11111222,11111222,11144222' 
ADCP,ioos:station:wmo:42887:1,2014-09-02T03:40:00Z,28.1910,-88.4960,48.2,1.8,133.0,99.0,'11111222,11111222,11144222' 
ADCP,ioos:station:wmo:42887:1,2014-09-02T04:00:00Z,28.1910,-88.4960,48.2,1.8,135.0,99.0,'11111222,11111222,11144222' 
ADCP,ioos:station:wmo:42887:1,2014-09-02T04:20:00Z,28.1910,-88.4960,48.2,1.4,142.0,99.0,'11111222,11111222,11144222' 
ADCP,ioos:station:wmo:42887:1,2014-09-02T04:40:00Z,28.1910,-88.4960,48.2,1.7,135.0,99.0,'11111222,11111222,11144222' 
ADCP,ioos:station:wmo:42887:1,2014-09-02T05:00:00Z,28.1910,-88.4960,48.2,1.0,112.0,99.0,'11111222,11111222,11144222' 
ADCP,ioos:station:wmo:42887:1,2014-09-02T05:20:00Z,28.1910,-88.4960,48.2,2.3,100.0,99.0,'11111222,11111222,11144222' 
ADCP,ioos:station:wmo:42887:1,2014-09-02T05:40:00Z,28.1910,-88.4960,48.2,3.6,114.0,99.0,'11111222,11111222,11144222' 
ADCP,ioos:station:wmo:42887:1,2014-09-02T06:00:00Z,28.1910,-88.4960,48.2,3.5,126.0,99.0,'11111222,11111222,11144222' 
ADCP,ioos:station:wmo:42887:1,2014-09-02T06:20:00Z,28.1910,-88.4960,48.2,3.5,137.0,99.0,'11111222,11111222,11144222' 
ADCP,ioos:station:wmo:42887:1,2014-09-02T06:40:00Z,28.1910,-88.4960,48.2,3.6,133.0,99.0,'11111222,11111222,11144222' 
ADCP,ioos:station:wmo:42887:1,2014-09-02T07:00:00Z,28.1910,-88.4960,48.2,3.7,119.0,99.0,'11111222,11111222,11144222' 
ADCP,ioos:station:wmo:42887:1,2014-09-02T07:20:00Z,28.1910,-88.4960,48.2,3.4,129.0,99.0,'11111222,11111222,11144222' 
ADCP,ioos:station:wmo:42887:1,2014-09-02T07:40:00Z,28.1910,-88.4960,48.2,4.0,132.0,99.0,'11111222,11111222,11144222' 
ADCP,ioos:station:wmo:42887:1,2014-09-02T08:00:00Z,28.1910,-88.4960,48.2,4.0,121.0,99.0,'11111222,11111222,11144222' 
ADCP,ioos:station:wmo:42887:1,2014-09-02T08:20:00Z,28.1910,-88.4960,48.2,3.8,123.0,99.0,'11111222,11111222,11144222' 
ADCP,ioos:station:wmo:42887:1,2014-09-02T08:40:00Z,28.1910,-88.4960,48.2,4.0,131.0,99.0,'11111222,11111222,11144222' 
ADCP,ioos:station:wmo:42887:1,2014-09-02T09:00:00Z,28.1910,-88.4960,48.2,3.8,121.0,99.0,'11111222,11111222,11144222' 
ADCP,ioos:station:wmo:42887:1,2014-09-02T09:20:00Z,28.1910,-88.4960,48.2,3.6,126.0,99.0,'11111222,11111222,11144222' 
ADCP,ioos:station:wmo:42887:1,2014-09-02T09:40:00Z,28.1910,-88.4960,48.2,3.0,130.0,99.0,'11111222,11111222,11144222' 
ADCP,ioos:station:wmo:42887:1,2014-09-02T10:00:00Z,28.1910,-88.4960,48.2,3.3,132.0,99.0,'11111222,11111222,11144222' 
ADCP,ioos:station:wmo:42887:1,2014-09-02T10:20:00Z,28.1910,-88.4960,48.2,2.6,132.0,99.0,'11111222,11111222,11144222' 
ADCP,ioos:station:wmo:42887:1,2014-09-02T10:40:00Z,28.1910,-88.4960,48.2,1.9,126.0,99.0,'11111222,11111222,11144222' 
ADCP,ioos:station:wmo:42887:1,2014-09-02T11:00:00Z,28.1910,-88.4960,48.2,2.5,124.0,99.0,'11111222,11111222,11144222' 
ADCP,ioos:station:wmo:42887:1,2014-09-02T11:20:00Z,28.1910,-88.4960,48.2,1.5,103.0,99.0,'11111222,11111222,11144222' 
ADCP,ioos:station:wmo:42887:1,2014-09-02T11:40:00Z,28.1910,-88.4960,48.2,1.2,98.0,99.0,'11111222,11111222,11144222' 
ADCP,ioos:station:wmo:42887:1,2014-09-02T12:00:00Z,28.1910,-88.4960,48.2,2.0,133.0,99.0,'11111222,11111222,11144222' 
ADCP,ioos:station:wmo:42887:1,2014-09-02T12:20:00Z,28.1910,-88.4960,48.2,1.0,127.0,99.0,'11111222,11111222,11144222' 
ADCP,ioos:station:wmo:42887:1,2014-09-02T12:40:00Z,28.1910,-88.4960,48.2,0.9,113.0,99.0,'11111222,11111222,11144222' 
ADCP,ioos:station:wmo:42887:1,2014-09-02T13:00:00Z,28.1910,-88.4960,48.2,2.0,127.0,99.0,'11111222,11111222,11144222' 
ADCP,ioos:station:wmo:42887:1,2014-09-02T13:20:00Z,28.1910,-88.4960,48.2,1.6,138.0,99.0,'11111222,11111222,11144222' 
ADCP,ioos:station:wmo:42887:1,2014-09-02T13:40:00Z,28.1910,-88.4960,48.2,0.9,96.0,99.0,'11111222,11111222,11144222' 
ADCP,ioos:station:wmo:42887:1,2014-09-02T14:00:00Z,28.1910,-88.4960,48.2,1.4,85.0,99.0,'11111222,11111222,11144222' 
ADCP,ioos:station:wmo:42887:1,2014-09-02T14:20:00Z,28.1910,-88.4960,48.2,1.8,83.0,99.0,'11111222,11111222,11144222' 
ADCP,ioos:station:wmo:42887:1,2014-09-02T14:40:00Z,28.1910,-88.4960,48.2,1.4,71.0,99.0,'11111222,11111222,11144222' 
ADCP,ioos:station:wmo:42887:1,2014-09-02T15:00:00Z,28.1910,-88.4960,48.2,1.4,71.0,99.0,'11111222,11111222,11144222' 
ADCP,ioos:station:wmo:42887:1,2014-09-02T15:20:00Z,28.1910,-88.4960,48.2,1.7,76.0,99.0,'11111222,11111222,11144222' 
ADCP,ioos:station:wmo:42887:1,2014-09-02T15:40:00Z,28.1910,-88.4960,48.2,2.3,76.0,99.0,'11111222,11111222,11144222' 
ADCP,ioos:station:wmo:42887:1,2014-09-02T16:00:00Z,28.1910,-88.4960,48.2,1.0,79.0,99.0,'11111222,11111222,11144222' 
ADCP,ioos:station:wmo:42887:1,2014-09-02T16:20:00Z,28.1910,-88.4960,48.2,2.0,74.0,99.0,'11111222,11111222,11144222' 
ADCP,ioos:station:wmo:42887:1,2014-09-02T16:40:00Z,28.1910,-88.4960,48.2,2.5,86.0,99.0,'11111222,11111222,11144222' 
ADCP,ioos:station:wmo:42887:1,2014-09-02T17:00:00Z,28.1910,-88.4960,48.2,1.7,90.0,99.0,'11111222,11111222,11144222' 
ADCP,ioos:station:wmo:42887:1,2014-09-02T17:20:00Z,28.1910,-88.4960,48.2,2.5,131.0,99.0,'11111222,11111222,11144222' 
ADCP,ioos:station:wmo:42887:1,2014-09-02T17:40:00Z,28.1910,-88.4960,48.2,1.7,141.0,99.0,'11111222,11111222,11144222' 
ADCP,ioos:station:wmo:42887:1,2014-09-02T18:00:00Z,28.1910,-88.4960,48.2,1.6,136.0,99.0,'11111222,11111222,11144222' 
ADCP,ioos:station:wmo:42887:1,2014-09-02T18:20:00Z,28.1910,-88.4960,48.2,2.2,119.0,99.0,'11111222,11111222,11144222' 
ADCP,ioos:station:wmo:42887:1,2014-09-02T18:40:00Z,28.1910,-88.4960,48.2,2.9,109.0,99.0,'11111222,11111222,11144222' 
ADCP,ioos:station:wmo:42887:1,2014-09-02T19:00:00Z,28.1910,-88.4960,48.2,1.8,140.0,99.0,'11111222,11111222,11144222' 
ADCP,ioos:station:wmo:42887:1,2014-09-02T19:20:00Z,28.1910,-88.4960,48.2,2.7,109.0,99.0,'11111222,11111222,11144222' 
ADCP,ioos:station:wmo:42887:1,2014-09-02T19:40:00Z,28.1910,-88.4960,48.2,2.9,134.0,99.0,'11111222,11111222,11144222' 
ADCP,ioos:station:wmo:42887:1,2014-09-02T20:00:00Z,28.1910,-88.4960,48.2,2.9,114.0,99.0,'11111222,11111222,11144222' 
ADCP,ioos:station:wmo:42887:1,2014-09-02T20:20:00Z,28.1910,-88.4960,48.2,3.1,115.0,99.0,'11111222,11111222,11144222' 
ADCP,ioos:station:wmo:42887:1,2014-09-02T20:40:00Z,28.1910,-88.4960,48.2,2.7,133.0,99.0,'11111222,11111222,11144222' 
ADCP,ioos:station:wmo:42887:1,2014-09-02T21:00:00Z,28.1910,-88.4960,48.2,2.0,153.0,99.0,'11111222,11111222,11144222' 
ADCP,ioos:station:wmo:42887:1,2014-09-02T21:20:00Z,28.1910,-88.4960,48.2,3.1,135.0,99.0,'11111222,11111222,11144222' 
ADCP,ioos:station:wmo:42887:1,2014-09-02T21:40:00Z,28.1910,-88.4960,48.2,3.0,133.0,99.0,'11111222,11111222,11144222' 
ADCP,ioos:station:wmo:42887:1,2014-09-02T22:00:00Z,28.1910,-88.4960,48.2,2.5,143.0,99.0,'11111222,11111222,11144222' 
ADCP,ioos:station:wmo:42887:1,2014-09-02T22:20:00Z,28.1910,-88.4960,48.2,2.1,147.0,99.0,'11111222,11111222,11144222' 
ADCP,ioos:station:wmo:42887:1,2014-09-02T22:40:00Z,28.1910,-88.4960,48.2,2.7,142.0,99.0,'11111222,11111222,11144222' 
ADCP,ioos:station:wmo:42887:1,2014-09-02T23:00:00Z,28.1910,-88.4960,48.2,2.5,130.0,99.0,'11111222,11111222,11144222' 
ADCP,ioos:station:wmo:42887:1,2014-09-02T23:20:00Z,28.1910,-88.4960,48.2,2.6,136.0,99.0,'11111222,11111222,11144222' 
ADCP,ioos:station:wmo:42887:1,2014-09-02T23:40:00Z,28.1910,-88.4960,48.2,3.2,120.0,99.0,'11111222,11111222,11144222' 
ADCP,ioos:station:wmo:42887:1,2014-09-03T00:00:00Z,28.1910,-88.4960,48.2,2.0,137.0,99.0,'11111222,11111222,11144222' 
ADCP,ioos:station:wmo:42887:1,2014-09-03T00:20:00Z,28.1910,-88.4960,48.2,2.8,135.0,99.0,'11111222,11111222,11144222' 
ADCP,ioos:station:wmo:42887:1,2014-09-03T00:40:00Z,28.1910,-88.4960,48.2,1.8,137.0,99.0,'11111222,11111222,11144222' 
ADCP,ioos:station:wmo:42887:1,2014-09-03T01:00:00Z,28.1910,-88.4960,48.2,1.2,146.0,99.0,'11111222,11111222,11144222' 
ADCP,ioos:station:wmo:42887:1,2014-09-03T01:20:00Z,28.1910,-88.4960,48.2,2.8,135.0,99.0,'11111222,11111222,11144222' 
ADCP,ioos:station:wmo:42887:1,2014-09-03T01:40:00Z,28.1910,-88.4960,48.2,1.2,144.0,99.0,'11111222,11111222,11144222' 
ADCP,ioos:station:wmo:42887:1,2014-09-03T02:00:00Z,28.1910,-88.4960,48.2,1.8,133.0,99.0,'11111222,11111222,11144222' 
ADCP,ioos:station:wmo:42887:1,2014-09-03T02:20:00Z,28.1910,-88.4960,48.2,1.7,88.0,99.0,'11111222,11111222,11144222' 
ADCP,ioos:station:wmo:42887:1,2014-09-03T02:40:00Z,28.1910,-88.4960,48.2,2.3,82.0,99.0,'11111222,11111222,11144222' 
ADCP,ioos:station:wmo:42887:1,2014-09-03T03:00:00Z,28.1910,-88.4960,48.2,2.0,84.0,99.0,'11111222,11111222,11144222' 
ADCP,ioos:station:wmo:42887:1,2014-09-03T03:20:00Z,28.1910,-88.4960,48.2,2.2,87.0,99.0,'11111222,11111222,11144222' 
ADCP,ioos:station:wmo:42887:1,2014-09-03T03:40:00Z,28.1910,-88.4960,48.2,2.3,106.0,99.0,'11111222,11111222,11144222' 
ADCP,ioos:station:wmo:42887:1,2014-09-03T04:00:00Z,28.1910,-88.4960,48.2,3.4,116.0,99.0,'11111222,11111222,11144222' 
ADCP,ioos:station:wmo:42887:1,2014-09-03T04:20:00Z,28.1910,-88.4960,48.2,2.2,117.0,99.0,'11111222,11111222,11144222' 
ADCP,ioos:station:wmo:42887:1,2014-09-03T04:40:00Z,28.1910,-88.4960,48.2,2.2,125.0,99.0,'11111222,11111222,11144222' 
ADCP,ioos:station:wmo:42887:1,2014-09-03T05:00:00Z,28.1910,-88.4960,48.2,1.7,114.0,99.0,'11111222,11111222,11144222' 
ADCP,ioos:station:wmo:42887:1,2014-09-03T05:20:00Z,28.1910,-88.4960,48.2,2.3,99.0,99.0,'11111222,11111222,11144222' 
ADCP,ioos:station:wmo:42887:1,2014-09-03T05:40:00Z,28.1910,-88.4960,48.2,2.7,100.0,99.0,'11111222,11111222,11144222' 
ADCP,ioos:station:wmo:42887:1,2014-09-03T06:00:00Z,28.1910,-88.4960,48.2,3.5,112.0,99.0,'11111222,11111222,11144222' 
ADCP,ioos:station:wmo:42887:1,2014-09-03T06:20:00Z,28.1910,-88.4960,48.2,2.8,107.0,99.0,'11111222,11111222,11144222' 
ADCP,ioos:station:wmo:42887:1,2014-09-03T06:40:00Z,28.1910,-88.4960,48.2,3.3,122.0,99.0,'11111222,11111222,11144222' 
ADCP,ioos:station:wmo:42887:1,2014-09-03T07:00:00Z,28.1910,-88.4960,48.2,2.4,86.0,99.0,'11111222,11111222,11144222' 
ADCP,ioos:station:wmo:42887:1,2014-09-03T07:20:00Z,28.1910,-88.4960,48.2,3.0,94.0,99.0,'11111222,11111222,11144222' 
ADCP,ioos:station:wmo:42887:1,2014-09-03T07:40:00Z,28.1910,-88.4960,48.2,2.5,98.0,99.0,'11111222,11111222,11144222' 
ADCP,ioos:station:wmo:42887:1,2014-09-03T08:00:00Z,28.1910,-88.4960,48.2,1.7,100.0,99.0,'11111222,11111222,11144222' 
ADCP,ioos:station:wmo:42887:1,2014-09-03T08:20:00Z,28.1910,-88.4960,48.2,1.3,109.0,99.0,'11111222,11111222,11144222' 
ADCP,ioos:station:wmo:42887:1,2014-09-03T08:40:00Z,28.1910,-88.4960,48.2,1.8,75.0,99.0,'11111222,11111222,11144222' 
ADCP,ioos:station:wmo:42887:1,2014-09-03T09:00:00Z,28.1910,-88.4960,48.2,3.3,84.0,99.0,'11111222,11111222,11144222' 
ADCP,ioos:station:wmo:42887:1,2014-09-03T09:20:00Z,28.1910,-88.4960,48.2,4.1,105.0,99.0,'11111222,11111222,11144222' 
ADCP,ioos:station:wmo:42887:1,2014-09-03T09:40:00Z,28.1910,-88.4960,48.2,3.6,110.0,99.0,'11111222,11111222,11144222' 
ADCP,ioos:station:wmo:42887:1,2014-09-03T10:00:00Z,28.1910,-88.4960,48.2,3.7,112.0,99.0,'11111222,11111222,11144222' 
ADCP,ioos:station:wmo:42887:1,2014-09-03T10:20:00Z,28.1910,-88.4960,48.2,2.7,115.0,99.0,'11111222,11111222,11144222' 
ADCP,ioos:station:wmo:42887:1,2014-09-03T10:40:00Z,28.1910,-88.4960,48.2,3.4,127.0,99.0,'11111222,11111222,11144222' 
ADCP,ioos:station:wmo:42887:1,2014-09-03T11:00:00Z,28.1910,-88.4960,48.2,3.0,124.0,99.0,'11111222,11111222,11144222' 
ADCP,ioos:station:wmo:42887:1,2014-09-03T11:20:00Z,28.1910,-88.4960,48.2,2.5,83.0,99.0,'11111222,11111222,11144222' 
ADCP,ioos:station:wmo:42887:1,2014-09-03T11:40:00Z,28.1910,-88.4960,48.2,2.9,83.0,99.0,'11111222,11111222,11144222' 
ADCP,ioos:station:wmo:42887:1,2014-09-03T12:00:00Z,28.1910,-88.4960,48.2,2.9,80.0,99.0,'11111222,11111222,11144222' 
ADCP,ioos:station:wmo:42887:1,2014-09-03T12:20:00Z,28.1910,-88.4960,48.2,2.9,80.0,99.0,'11111222,11111222,11144222' 
ADCP,ioos:station:wmo:42887:1,2014-09-03T12:40:00Z,28.1910,-88.4960,48.2,3.1,82.0,99.0,'11111222,11111222,11144222' 
ADCP,ioos:station:wmo:42887:1,2014-09-03T13:00:00Z,28.1910,-88.4960,48.2,2.9,63.0,99.0,'11111222,11111222,11144222' 
ADCP,ioos:station:wmo:42887:1,2014-09-03T13:20:00Z,28.1910,-88.4960,48.2,3.7,64.0,99.0,'11111222,11111222,11144222' 
ADCP,ioos:station:wmo:42887:1,2014-09-03T13:40:00Z,28.1910,-88.4960,48.2,3.6,57.0,99.0,'11111222,11111222,11144222' 
ADCP,ioos:station:wmo:42887:1,2014-09-03T14:00:00Z,28.1910,-88.4960,48.2,3.9,56.0,99.0,'11111222,11111222,11144222' 
ADCP,ioos:station:wmo:42887:1,2014-09-03T14:20:00Z,28.1910,-88.4960,48.2,3.6,65.0,99.0,'11111222,11111222,11144222' 
ADCP,ioos:station:wmo:42887:1,2014-09-03T14:40:00Z,28.1910,-88.4960,48.2,3.8,60.0,99.0,'11111222,11111222,11144222' 
ADCP,ioos:station:wmo:42887:1,2014-09-03T15:00:00Z,28.1910,-88.4960,48.2,4.4,52.0,99.0,'11111222,11111222,11144222' 
ADCP,ioos:station:wmo:42887:1,2014-09-03T15:20:00Z,28.1910,-88.4960,48.2,3.5,63.0,99.0,'11111222,11111222,11144222' 
ADCP,ioos:station:wmo:42887:1,2014-09-03T15:40:00Z,28.1910,-88.4960,48.2,4.2,68.0,99.0,'11111222,11111222,11144222' 
ADCP,ioos:station:wmo:42887:1,2014-09-03T16:00:00Z,28.1910,-88.4960,48.2,4.5,74.0,99.0,'11111222,11111222,11144222' 
ADCP,ioos:station:wmo:42887:1,2014-09-03T16:20:00Z,28.1910,-88.4960,48.2,4.2,71.0,99.0,'11111222,11111222,11144222' 
ADCP,ioos:station:wmo:42887:1,2014-09-03T16:40:00Z,28.1910,-88.4960,48.2,4.3,80.0,99.0,'11111222,11111222,11144222' 
ADCP,ioos:station:wmo:42887:1,2014-09-03T17:00:00Z,28.1910,-88.4960,48.2,3.6,74.0,99.0,'11111222,11111222,11144222' 
ADCP,ioos:station:wmo:42887:1,2014-09-03T17:20:00Z,28.1910,-88.4960,48.2,3.6,80.0,99.0,'11111222,11111222,11144222' 
ADCP,ioos:station:wmo:42887:1,2014-09-03T17:40:00Z,28.1910,-88.4960,48.2,3.4,81.0,99.0,'11111222,11111222,11144222' 
ADCP,ioos:station:wmo:42887:1,2014-09-03T18:00:00Z,28.1910,-88.4960,48.2,3.7,79.0,99.0,'11111222,11111222,11144222' 
ADCP,ioos:station:wmo:42887:1,2014-09-03T18:20:00Z,28.1910,-88.4960,48.2,3.5,72.0,99.0,'11111222,11111222,11144222' 
ADCP,ioos:station:wmo:42887:1,2014-09-03T18:40:00Z,28.1910,-88.4960,48.2,3.5,68.0,99.0,'11111222,11111222,11144222' 
ADCP,ioos:station:wmo:42887:1,2014-09-03T19:00:00Z,28.1910,-88.4960,48.2,3.7,80.0,99.0,'11111222,11111222,11144222' 